Time,TemperatureF,DewpointF,PressureIn,WindDirection,WindDirectionDegrees,WindSpeedMPH,WindSpeedGustMPH,Humidity,HourlyPrecipIn,Conditions,Clouds,dailyrainin,SoftwareType,DateUTC
2013-04-18 00:03:00,48.0,34.0,30.21,NE,53,4.0,9.0,57,0.00,,,0.00,,2013-04-18 04:03:00,
2013-04-18 00:13:00,48.0,34.0,30.21,NE,53,4.0,9.0,57,0.00,,,0.00,,2013-04-18 04:13:00,
2013-04-18 00:23:00,47.0,36.0,30.21,NE,40,6.0,9.0,65,0.00,,,0.00,,2013-04-18 04:23:00,
2013-04-18 00:33:00,45.0,35.0,30.21,ENE,58,8.0,10.0,69,0.00,,,0.00,,2013-04-18 04:33:00,
2013-04-18 00:43:00,44.0,35.0,30.20,NE,44,6.0,12.0,70,0.00,,,0.00,,2013-04-18 04:43:00,
2013-04-18 00:53:00,44.0,35.0,30.20,NE,44,6.0,12.0,70,0.00,,,0.00,,2013-04-18 04:53:00,
2013-04-18 01:02:00,44.0,35.0,30.19,ENE,77,9.0,12.0,71,0.00,,,0.00,,2013-04-18 05:02:00,
2013-04-18 01:12:00,45.0,36.0,30.15,East,89,10.0,15.0,70,0.00,,,0.00,,2013-04-18 05:12:00,
2013-04-18 01:22:00,45.0,36.0,30.15,East,89,10.0,15.0,70,0.00,,,0.00,,2013-04-18 05:22:00,
2013-04-18 01:33:00,45.0,35.0,30.14,East,86,9.0,15.0,68,0.00,,,0.00,,2013-04-18 05:33:00,
2013-04-18 01:42:00,46.0,35.0,30.14,East,101,5.0,13.0,65,0.00,,,0.00,,2013-04-18 05:42:00,
2013-04-18 01:52:00,46.0,35.0,30.14,East,101,5.0,13.0,65,0.00,,,0.00,,2013-04-18 05:52:00,
2013-04-18 02:02:00,48.0,35.0,30.14,East,88,8.0,12.0,60,0.00,,,0.00,,2013-04-18 06:02:00,
2013-04-18 02:12:00,48.0,35.0,30.14,East,90,7.0,13.0,60,0.00,,,0.00,,2013-04-18 06:12:00,
2013-04-18 02:22:00,48.0,35.0,30.14,East,90,7.0,13.0,60,0.00,,,0.00,,2013-04-18 06:22:00,
2013-04-18 02:32:00,48.0,35.0,30.12,East,85,9.0,14.0,61,0.00,,,0.00,,2013-04-18 06:32:00,
2013-04-18 02:42:00,47.0,37.0,30.12,ENE,64,3.0,13.0,68,0.00,,,0.00,,2013-04-18 06:42:00,
2013-04-18 02:52:00,47.0,37.0,30.12,ENE,64,3.0,13.0,68,0.00,,,0.00,,2013-04-18 06:52:00,
2013-04-18 03:02:00,45.0,36.0,30.10,NE,55,6.0,11.0,71,0.00,,,0.00,,2013-04-18 07:02:00,
2013-04-18 03:12:00,45.0,37.0,30.09,ENE,65,9.0,11.0,72,0.04,,,0.04,,2013-04-18 07:12:00,
2013-04-18 03:22:00,45.0,37.0,30.09,ENE,65,9.0,11.0,72,0.04,,,0.04,,2013-04-18 07:22:00,
2013-04-18 03:32:00,44.0,36.0,30.07,ESE,115,10.0,15.0,72,0.04,,,0.04,,2013-04-18 07:32:00,
2013-04-18 03:42:00,45.0,36.0,30.06,ENE,71,9.0,16.0,71,0.04,,,0.04,,2013-04-18 07:42:00,
2013-04-18 03:53:00,45.0,36.0,30.06,ENE,71,9.0,16.0,71,0.04,,,0.04,,2013-04-18 07:53:00,
2013-04-18 04:02:00,45.0,37.0,30.06,ENE,61,9.0,13.0,72,0.04,,,0.04,,2013-04-18 08:02:00,
2013-04-18 04:12:00,45.0,37.0,30.05,ENE,68,10.0,15.0,72,0.00,,,0.04,,2013-04-18 08:12:00,
2013-04-18 04:22:00,45.0,37.0,30.05,ENE,68,10.0,15.0,72,0.00,,,0.04,,2013-04-18 08:22:00,
2013-04-18 04:32:00,45.0,37.0,30.05,ENE,60,10.0,14.0,72,0.00,,,0.04,,2013-04-18 08:32:00,
2013-04-18 04:42:00,45.0,37.0,30.04,ENE,71,10.0,14.0,72,0.00,,,0.04,,2013-04-18 08:42:00,
2013-04-18 04:52:00,45.0,37.0,30.04,ENE,71,10.0,14.0,72,0.00,,,0.04,,2013-04-18 08:52:00,
2013-04-18 05:02:00,45.0,36.0,30.03,ESE,106,10.0,17.0,71,0.00,,,0.04,,2013-04-18 09:02:00,
2013-04-18 05:12:00,45.0,37.0,30.02,East,79,12.0,16.0,72,0.00,,,0.04,,2013-04-18 09:12:00,
2013-04-18 05:22:00,45.0,37.0,30.02,East,79,12.0,16.0,72,0.00,,,0.04,,2013-04-18 09:22:00,
2013-04-18 05:33:00,45.0,37.0,30.03,East,101,11.0,16.0,72,0.00,,,0.04,,2013-04-18 09:33:00,
2013-04-18 05:43:00,45.0,37.0,30.03,ENE,64,7.0,9.0,72,0.00,,,0.04,,2013-04-18 09:43:00,
2013-04-18 05:53:00,45.0,37.0,30.03,ENE,64,7.0,9.0,72,0.00,,,0.04,,2013-04-18 09:53:00,
2013-04-18 06:03:00,45.0,37.0,30.01,ESE,106,10.0,13.0,72,0.00,,,0.04,,2013-04-18 10:03:00,
2013-04-18 06:12:00,45.0,37.0,30.01,ESE,106,10.0,13.0,72,0.00,,,0.04,,2013-04-18 10:12:00,
2013-04-18 06:23:00,45.0,37.0,29.99,East,89,8.0,14.0,72,0.00,,,0.04,,2013-04-18 10:23:00,
2013-04-18 06:32:00,45.0,37.0,29.98,ESE,109,8.0,14.0,72,0.00,,,0.04,,2013-04-18 10:32:00,
2013-04-18 06:42:00,45.0,37.0,29.98,ESE,109,8.0,14.0,72,0.00,,,0.04,,2013-04-18 10:42:00,
2013-04-18 06:52:00,46.0,37.0,29.98,East,99,7.0,14.0,71,0.00,,,0.04,,2013-04-18 10:52:00,
2013-04-18 07:02:00,46.0,37.0,29.98,East,100,8.0,12.0,71,0.00,,,0.04,,2013-04-18 11:02:00,
2013-04-18 07:12:00,46.0,37.0,29.97,ESE,109,8.0,13.0,71,0.00,,,0.04,,2013-04-18 11:12:00,
2013-04-18 07:22:00,46.0,37.0,29.97,ESE,109,8.0,13.0,71,0.00,,,0.04,,2013-04-18 11:22:00,
2013-04-18 07:32:00,46.0,37.0,29.97,ESE,103,8.0,11.0,72,0.00,,,0.04,,2013-04-18 11:32:00,
2013-04-18 07:42:00,46.0,37.0,29.96,ESE,110,6.0,11.0,72,0.00,,,0.04,,2013-04-18 11:42:00,
2013-04-18 07:52:00,46.0,37.0,29.96,ESE,110,6.0,11.0,72,0.00,,,0.04,,2013-04-18 11:52:00,
2013-04-18 08:02:00,46.0,37.0,29.96,ESE,119,4.0,11.0,72,0.00,,,0.04,,2013-04-18 12:02:00,
2013-04-18 08:12:00,47.0,38.0,29.96,ESE,107,4.0,8.0,72,0.00,,,0.04,,2013-04-18 12:12:00,
2013-04-18 08:22:00,47.0,38.0,29.96,ESE,107,4.0,8.0,72,0.00,,,0.04,,2013-04-18 12:22:00,
2013-04-18 08:32:00,48.0,39.0,29.95,ESE,105,5.0,10.0,72,0.00,,,0.04,,2013-04-18 12:32:00,
2013-04-18 08:42:00,48.0,39.0,29.95,ESE,105,5.0,10.0,72,0.00,,,0.04,,2013-04-18 12:42:00,
2013-04-18 08:52:00,48.0,39.0,29.95,East,90,2.0,7.0,71,0.00,,,0.04,,2013-04-18 12:52:00,
2013-04-18 09:02:00,49.0,40.0,29.93,East,97,4.0,5.0,71,0.00,,,0.04,,2013-04-18 13:02:00,
2013-04-18 09:12:00,50.0,41.0,29.93,East,100,2.0,5.0,71,0.00,,,0.04,,2013-04-18 13:12:00,
2013-04-18 09:22:00,50.0,41.0,29.93,East,100,2.0,5.0,71,0.00,,,0.04,,2013-04-18 13:22:00,
2013-04-18 09:32:00,52.0,43.0,29.91,ESE,104,3.0,6.0,70,0.00,,,0.04,,2013-04-18 13:32:00,
2013-04-18 09:42:00,54.0,44.0,29.90,SE,138,1.0,3.0,68,0.00,,,0.04,,2013-04-18 13:42:00,
2013-04-18 09:53:00,54.0,44.0,29.90,SE,138,1.0,3.0,68,0.00,,,0.04,,2013-04-18 13:53:00,
2013-04-18 10:02:00,56.0,46.0,29.88,SE,140,1.0,3.0,68,0.00,,,0.04,,2013-04-18 14:02:00,
2013-04-18 10:12:00,59.0,49.0,29.86,SSE,156,3.0,6.0,70,0.00,,,0.04,,2013-04-18 14:12:00,
2013-04-18 10:22:00,59.0,49.0,29.86,SSE,156,3.0,6.0,70,0.00,,,0.04,,2013-04-18 14:22:00,
2013-04-18 10:32:00,64.0,54.0,29.86,SSW,202,7.0,12.0,69,0.00,,,0.04,,2013-04-18 14:32:00,
2013-04-18 10:43:00,67.0,56.0,29.87,SW,222,4.0,9.0,68,0.00,,,0.04,,2013-04-18 14:43:00,
2013-04-18 10:52:00,67.0,56.0,29.87,SW,222,4.0,9.0,68,0.00,,,0.04,,2013-04-18 14:52:00,
2013-04-18 11:03:00,68.0,55.0,29.86,SSW,209,1.0,7.0,63,0.00,,,0.04,,2013-04-18 15:03:00,
2013-04-18 11:12:00,68.0,55.0,29.86,SSW,209,1.0,7.0,63,0.00,,,0.04,,2013-04-18 15:12:00,
2013-04-18 11:22:00,70.0,58.0,29.85,SW,215,7.0,13.0,66,0.00,,,0.04,,2013-04-18 15:22:00,
2013-04-18 11:33:00,73.0,60.0,29.84,SSW,209,7.0,17.0,64,0.00,,,0.04,,2013-04-18 15:33:00,
2013-04-18 11:43:00,73.0,60.0,29.84,SW,218,9.0,15.0,63,0.00,,,0.04,,2013-04-18 15:43:00,
2013-04-18 11:53:00,73.0,60.0,29.84,SW,218,9.0,15.0,63,0.00,,,0.04,,2013-04-18 15:53:00,
2013-04-18 12:03:00,73.0,59.0,29.83,WSW,239,6.0,20.0,62,0.00,,,0.04,,2013-04-18 16:03:00,
2013-04-18 12:13:00,65.0,48.0,29.83,WNW,300,3.0,7.0,55,0.00,,,0.04,,2013-04-18 16:13:00,
2013-04-18 12:23:00,65.0,48.0,29.83,WNW,300,3.0,7.0,55,0.00,,,0.04,,2013-04-18 16:23:00,
2013-04-18 12:33:00,65.0,55.0,29.81,SW,229,6.0,11.0,70,0.00,,,0.04,,2013-04-18 16:33:00,
2013-04-18 12:43:00,75.0,61.0,29.80,WSW,241,13.0,23.0,62,0.00,,,0.04,,2013-04-18 16:43:00,
2013-04-18 12:53:00,75.0,61.0,29.80,WSW,241,13.0,23.0,62,0.00,,,0.04,,2013-04-18 16:53:00,
2013-04-18 13:03:00,78.0,62.0,29.78,SSW,200,14.0,22.0,57,0.00,,,0.04,,2013-04-18 17:03:00,
2013-04-18 13:12:00,79.0,62.0,29.76,South,189,17.0,26.0,56,0.00,,,0.04,,2013-04-18 17:12:00,
2013-04-18 13:22:00,79.0,62.0,29.76,South,189,17.0,26.0,56,0.00,,,0.04,,2013-04-18 17:22:00,
2013-04-18 13:33:00,79.0,62.0,29.75,SSW,192,15.0,24.0,56,0.00,,,0.04,,2013-04-18 17:33:00,
2013-04-18 13:42:00,80.0,62.0,29.75,SSW,209,14.0,27.0,55,0.00,,,0.04,,2013-04-18 17:42:00,
2013-04-18 13:52:00,80.0,62.0,29.75,SSW,209,14.0,27.0,55,0.00,,,0.04,,2013-04-18 17:52:00,
2013-04-18 14:03:00,81.0,63.0,29.75,SW,217,15.0,26.0,54,0.00,,,0.04,,2013-04-18 18:03:00,
2013-04-18 14:12:00,81.0,63.0,29.75,SW,229,14.0,25.0,54,0.00,,,0.04,,2013-04-18 18:12:00,
2013-04-18 14:23:00,81.0,63.0,29.75,SW,229,14.0,25.0,54,0.00,,,0.04,,2013-04-18 18:23:00,
2013-04-18 14:32:00,81.0,62.0,29.74,SSW,207,14.0,26.0,53,0.00,,,0.04,,2013-04-18 18:32:00,
2013-04-18 14:42:00,81.0,62.0,29.73,SW,223,14.0,26.0,53,0.00,,,0.04,,2013-04-18 18:42:00,
2013-04-18 14:52:00,81.0,62.0,29.73,SW,223,14.0,26.0,53,0.00,,,0.04,,2013-04-18 18:52:00,
2013-04-18 15:02:00,82.0,63.0,29.72,SSW,212,12.0,21.0,53,0.00,,,0.04,,2013-04-18 19:02:00,
2013-04-18 15:12:00,82.0,63.0,29.72,SSW,212,12.0,21.0,53,0.00,,,0.04,,2013-04-18 19:12:00,
2013-04-18 15:22:00,81.0,63.0,29.72,SSW,192,13.0,19.0,54,0.00,,,0.04,,2013-04-18 19:22:00,
2013-04-18 15:32:00,81.0,62.0,29.71,SSW,209,15.0,24.0,53,0.00,,,0.04,,2013-04-18 19:32:00,
2013-04-18 15:42:00,82.0,63.0,29.70,SSW,200,14.0,31.0,52,0.00,,,0.04,,2013-04-18 19:42:00,
2013-04-18 15:53:00,82.0,63.0,29.70,SSW,200,14.0,31.0,52,0.00,,,0.04,,2013-04-18 19:53:00,
2013-04-18 16:02:00,82.0,63.0,29.69,South,191,16.0,24.0,52,0.00,,,0.04,,2013-04-18 20:02:00,
2013-04-18 16:12:00,82.0,63.0,29.69,South,180,9.0,17.0,52,0.00,,,0.04,,2013-04-18 20:12:00,
2013-04-18 16:22:00,82.0,63.0,29.69,South,180,9.0,17.0,52,0.00,,,0.04,,2013-04-18 20:22:00,
2013-04-18 16:32:00,82.0,62.0,29.68,SSW,205,12.0,25.0,51,0.00,,,0.04,,2013-04-18 20:32:00,
2013-04-18 16:42:00,82.0,62.0,29.68,SSW,200,11.0,17.0,51,0.00,,,0.04,,2013-04-18 20:42:00,
2013-04-18 16:52:00,82.0,62.0,29.68,SSW,200,11.0,17.0,51,0.00,,,0.04,,2013-04-18 20:52:00,
2013-04-18 17:02:00,81.0,63.0,29.68,SW,221,9.0,21.0,54,0.00,,,0.04,,2013-04-18 21:02:00,
2013-04-18 17:12:00,81.0,63.0,29.66,SSW,192,9.0,18.0,55,0.00,,,0.04,,2013-04-18 21:12:00,
2013-04-18 17:22:00,81.0,63.0,29.66,SSW,192,9.0,18.0,55,0.00,,,0.04,,2013-04-18 21:22:00,
2013-04-18 17:33:00,81.0,63.0,29.66,SW,218,10.0,17.0,54,0.00,,,0.04,,2013-04-18 21:33:00,
2013-04-18 17:43:00,81.0,63.0,29.65,SSW,202,10.0,22.0,54,0.00,,,0.04,,2013-04-18 21:43:00,
2013-04-18 17:53:00,81.0,63.0,29.65,SSW,202,10.0,22.0,54,0.00,,,0.04,,2013-04-18 21:53:00,
2013-04-18 18:02:00,80.0,62.0,29.66,South,169,13.0,25.0,54,0.00,,,0.04,,2013-04-18 22:02:00,
2013-04-18 18:13:00,80.0,62.0,29.65,South,188,12.0,20.0,55,0.00,,,0.04,,2013-04-18 22:13:00,
2013-04-18 18:23:00,80.0,62.0,29.65,South,188,12.0,20.0,55,0.00,,,0.04,,2013-04-18 22:23:00,
2013-04-18 18:32:00,79.0,62.0,29.66,SSE,159,10.0,17.0,56,0.00,,,0.04,,2013-04-18 22:32:00,
2013-04-18 18:42:00,79.0,62.0,29.65,South,176,327.0,327.0,57,0.00,,,0.01,,2013-04-18 22:42:00,
2013-04-18 18:52:00,79.0,62.0,29.65,South,176,327.0,327.0,57,0.00,,,0.01,,2013-04-18 22:52:00,
2013-04-18 19:04:00,79.0,62.0,29.65,South,176,327.0,327.0,57,0.00,,,0.01,,2013-04-18 23:04:00,
2013-04-18 19:12:00,79.0,62.0,29.65,South,176,327.0,327.0,57,0.00,,,0.01,,2013-04-18 23:12:00,
2013-04-18 19:21:00,79.0,62.0,29.65,South,176,327.0,327.0,57,0.00,,,0.01,,2013-04-18 23:21:00,
2013-04-18 19:32:00,79.0,62.0,29.65,South,176,327.0,327.0,57,0.00,,,0.01,,2013-04-18 23:32:00,